EW4696 Weather Reports


Display with metric or nautical units.
time (UTC)temp
F
wind
direction
speed
MPH
gust
MPH
rain 1hr
in
rain 24hr
in
rain mn
in
humidity
%
barometer
mb
20260505225504 83 209 1.0 7.0 0.00 0.00 0.00 73 1006.1
20260505225003 83 202 1.0 5.0 0.00 0.00 0.00 74 1006.1
20260505224004 84 335 1.0 5.0 0.00 0.00 0.00 73 1006.2
20260505223504 84 10 1.0 4.0 0.00 0.00 0.00 72 1006.1
20260505223004 84 176 1.0 6.0 0.00 0.00 0.00 71 1006.1
20260505222504 84 186 1.0 7.0 0.00 0.00 0.00 72 1006.0
20260505220504 84 212 2.0 7.0 0.00 0.00 0.00 71 1006.2
20260505220004 84 205 2.0 8.0 0.00 0.00 0.00 71 1006.3
20260505215504 84 186 1.0 8.0 0.00 0.00 0.00 71 1006.2
20260505214504 84 225 1.0 8.0 0.00 0.00 0.00 72 1006.6
20260505214004 84 198 2.0 7.0 0.00 0.00 0.00 71 1006.7
20260505213504 84 169 2.0 7.0 0.00 0.00 0.00 72 1006.7
20260505213004 84 163 2.0 6.0 0.00 0.00 0.00 72 1006.6
20260505212004 84 197 2.0 6.0 0.00 0.00 0.00 73 1006.8
20260505211003 83 189 2.0 6.0 0.00 0.00 0.00 75 1006.8
20260505210504 83 193 2.0 6.0 0.00 0.00 0.00 74 1006.8
20260505210004 83 187 2.0 6.0 0.00 0.00 0.00 74 1006.9
20260505205504 83 184 1.0 5.0 0.00 0.00 0.00 74 1007.0
20260505205004 83 172 1.0 5.0 0.00 0.00 0.00 73 1007.0
20260505204504 83 163 1.0 5.0 0.00 0.00 0.00 74 1007.0
20260505204004 83 204 1.0 6.0 0.00 0.00 0.00 73 1007.0
20260505203504 84 192 2.0 6.0 0.00 0.00 0.00 74 1007.1
20260505203004 83 191 2.0 6.0 0.00 0.00 0.00 76 1007.3
20260505202504 83 204 2.0 6.0 0.00 0.00 0.00 75 1007.4
20260505202004 83 201 2.0 5.0 0.00 0.00 0.00 75 1007.5
20260505201504 83 207 1.0 5.0 0.00 0.00 0.00 76 1007.6
20260505201004 83 191 1.0 7.0 0.00 0.00 0.00 76 1007.7
20260505200504 82 174 1.0 7.0 0.00 0.00 0.00 76 1007.7
20260505200004 83 216 1.0 7.0 0.00 0.00 0.00 75 1007.8
20260505195504 83 216 1.0 4.0 0.00 0.00 0.00 76 1007.9
20260505195004 82 174 1.0 4.0 0.00 0.00 0.00 76 1007.9
20260505194504 82 163 1.0 3.0 0.00 0.00 0.00 76 1008.0
20260505194003 82 193 1.0 3.0 0.00 0.00 0.00 76 1008.2
20260505193504 82 210 1.0 3.0 0.00 0.00 0.00 75 1008.3
20260505193004 82 202 1.0 4.0 0.00 0.00 0.00 76 1008.2
20260505192503 83 173 1.0 4.0 0.00 0.00 0.00 76 1008.2
20260505192004 83 156 1.0 5.0 0.00 0.00 0.00 76 1008.2
20260505191504 83 163 1.0 6.0 0.00 0.00 0.00 73 1008.3
20260505191003 84 184 1.0 6.0 0.00 0.00 0.00 76 1008.2
20260505190504 83 188 1.0 4.0 0.00 0.00 0.00 75 1008.3
20260505190004 83 193 1.0 4.0 0.00 0.00 0.00 76 1008.4
20260505185504 82 203 1.0 5.0 0.00 0.00 0.00 76 1008.4
20260505185004 82 182 2.0 5.0 0.00 0.00 0.00 77 1008.5
20260505183505 81 198 2.0 7.0 0.00 0.00 0.00 79 1008.7
20260505183003 80 197 2.0 7.0 0.00 0.00 0.00 77 1008.8
20260505182504 80 215 2.0 7.0 0.00 0.00 0.00 79 1008.8
20260505182004 80 200 2.0 8.0 0.00 0.00 0.00 79 1008.9
20260505181503 79 182 2.0 8.0 0.00 0.00 0.00 81 1009.0
20260505181004 79 197 2.0 8.0 0.00 0.00 0.00 80 1009.0
20260505180504 78 224 2.0 8.0 0.00 0.00 0.00 80 1009.0
20260505180003 78 208 2.0 7.0 0.00 0.00 0.00 82 1009.1
20260505175504 78 203 1.0 7.0 0.00 0.00 0.00 82 1009.2
20260505174504 77 195 1.0 7.0 0.00 0.00 0.00 83 1009.3
20260505174003 77 197 1.0 7.0 0.00 0.00 0.00 84 1009.3
20260505173504 76 178 1.0 6.0 0.00 0.00 0.00 84 1009.3
20260505173004 76 191 1.0 6.0 0.00 0.00 0.00 84 1009.4
20260505172503 76 199 1.0 6.0 0.00 0.00 0.00 84 1009.5
20260505172004 76 200 1.0 4.0 0.00 0.00 0.00 85 1009.4
20260505171504 76 192 1.0 4.0 0.00 0.00 0.00 85 1009.3
20260505171003 75 176 1.0 7.0 0.00 0.00 0.00 86 1009.4
20260505170503 75 193 2.0 7.0 0.00 0.00 0.00 86 1009.5
20260505170004 75 207 1.0 7.0 0.00 0.00 0.00 86 1009.5
20260505165504 74 190 1.0 6.0 0.00 0.00 0.00 86 1009.5
20260505165003 74 160 1.0 6.0 0.00 0.00 0.00 86 1009.5
20260505163004 74 179 1.0 5.0 0.00 0.00 0.00 88 1009.4
20260505162504 73 186 1.0 8.0 0.00 0.00 0.00 88 1009.3
20260505162006 73 189 2.0 8.0 0.00 0.00 0.00 88 1009.4
20260505161004 73 197 1.0 6.0 0.00 0.00 0.00 88 1009.4
20260505160504 72 201 1.0 6.0 0.00 0.00 0.00 88 1009.5
20260505153004 72 171 1.0 7.0 0.00 0.00 0.00 89 1009.6
20260505152504 72 167 1.0 8.0 0.00 0.00 0.00 89 1009.6
20260505152004 72 186 2.0 8.0 0.00 0.00 0.00 89 1009.5
20260505151504 72 202 1.0 8.0 0.00 0.00 0.00 89 1009.4
20260505151004 72 201 1.0 8.0 0.00 0.00 0.00 89 1009.3
20260505150503 72 204 1.0 5.0 0.00 0.00 0.00 89 1009.3
20260505140504 71 193 2.0 7.0 0.00 0.00 0.00 89 1009.0
20260505125003 70 182 2.0 8.0 0.00 0.00 0.00 89 1008.4
20260505124504 70 171 2.0 8.0 0.00 0.00 0.00 89 1008.2
20260505124004 70 150 2.0 8.0 0.00 0.00 0.00 89 1008.1
20260505123504 70 171 2.0 7.0 0.00 0.00 0.00 89 1008.1
20260505123003 70 193 1.0 7.0 0.00 0.00 0.00 89 1007.9
20260505122504 70 188 1.0 6.0 0.00 0.00 0.00 89 1007.9
20260505122004 70 185 1.0 6.0 0.00 0.00 0.00 89 1007.9
20260505121503 70 177 1.0 5.0 0.00 0.00 0.00 89 1007.8
20260505121003 70 207 1.0 7.0 0.00 0.00 0.00 89 1007.8
20260505120504 70 201 1.0 7.0 0.00 0.00 0.00 89 1007.7
20260505120004 70 188 1.0 7.0 0.00 0.00 0.00 89 1007.6
20260505115503 70 188 1.0 7.0 0.00 0.00 0.00 89 1007.5
20260505114004 70 160 1.0 6.0 0.00 0.00 0.00 89 1007.6
20260505113503 70 133 1.0 6.0 0.00 0.00 0.00 89 1007.6
20260505113004 70 151 1.0 7.0 0.00 0.00 0.00 89 1007.8
20260505112504 70 177 2.0 7.0 0.00 0.00 0.00 89 1007.8
20260505112004 70 206 2.0 7.0 0.00 0.00 0.00 89 1007.5
20260505111503 70 202 1.0 4.0 0.00 0.00 0.00 89 1007.4
20260505111004 70 191 1.0 6.0 0.00 0.00 0.00 89 1007.7
20260505110504 70 198 1.0 7.0 0.00 0.00 0.00 89 1007.8
20260505102004 70 226 1.0 7.0 0.00 0.00 0.00 88 1007.8
20260505101503 70 208 1.0 7.0 0.00 0.00 0.00 88 1008.0
20260505101004 70 181 1.0 7.0 0.00 0.00 0.00 88 1008.0
20260505100504 70 175 2.0 7.0 0.00 0.00 0.00 88 1008.0
20260505100004 70 184 2.0 9.0 0.00 0.00 0.00 88 1007.9
20260505095504 70 199 2.0 9.0 0.00 0.00 0.00 88 1008.0
20260505094003 70 208 2.0 7.0 0.00 0.00 0.00 88 1007.9
20260505093504 70 204 2.0 9.0 0.00 0.00 0.00 88 1008.0
20260505093004 70 202 1.0 9.0 0.00 0.00 0.00 88 1008.1
20260505092503 70 199 1.0 6.0 0.00 0.00 0.00 88 1008.0
20260505091504 70 188 1.0 8.0 0.00 0.00 0.00 88 1007.9
20260505091004 70 187 2.0 5.0 0.00 0.00 0.00 88 1008.1
20260505090503 70 206 2.0 5.0 0.00 0.00 0.00 88 1008.2
20260505090004 70 222 2.0 6.0 0.00 0.00 0.00 88 1008.2
20260505085004 70 207 2.0 12.0 0.00 0.00 0.00 88 1008.1
20260505084503 70 208 2.0 12.0 0.00 0.00 0.00 88 1008.1
20260505083004 70 200 2.0 8.0 0.00 0.00 0.00 88 1008.3
20260505082503 70 186 2.0 7.0 0.00 0.00 0.00 88 1008.3
20260505082004 70 185 2.0 7.0 0.00 0.00 0.00 88 1008.4
20260505081004 70 232 1.0 8.0 0.00 0.00 0.00 88 1008.5
20260505080503 70 197 2.0 7.0 0.00 0.00 0.00 88 1008.5
20260505080004 70 194 2.0 8.0 0.00 0.00 0.00 88 1008.6
20260505075504 70 208 2.0 8.0 0.00 0.00 0.00 88 1008.6
20260505075003 70 208 2.0 7.0 0.00 0.00 0.00 88 1008.7
20260505074504 70 212 2.0 8.0 0.00 0.00 0.00 88 1008.9
20260505073504 70 209 2.0 9.0 0.00 0.00 0.00 88 1008.8
20260505072504 70 211 1.0 5.0 0.00 0.00 0.00 88 1009.0
20260505072004 70 212 1.0 6.0 0.00 0.00 0.00 88 1009.1
20260505071504 70 207 2.0 6.0 0.00 0.00 0.00 88 1009.3
20260505071003 70 205 2.0 6.0 0.00 0.00 0.00 88 1009.2
20260505070504 70 187 1.0 6.0 0.00 0.00 0.00 88 1009.3
20260505070004 70 184 2.0 6.0 0.00 0.00 0.00 88 1009.3
20260505065503 70 176 2.0 8.0 0.00 0.00 0.00 88 1009.3
20260505064504 70 189 2.0 10.0 0.00 0.00 0.00 88 1009.4
20260505064004 70 202 2.0 10.0 0.00 0.00 0.00 88 1009.4
20260505063503 70 202 2.0 10.0 0.00 0.00 0.00 87 1009.4
20260505063004 70 187 2.0 10.0 0.00 0.00 0.00 87 1009.6
20260505062504 71 196 2.0 7.0 0.00 0.00 0.00 87 1009.7
20260505062003 71 213 2.0 8.0 0.00 0.00 0.00 87 1009.8
20260505061503 71 224 1.0 8.0 0.00 0.00 0.00 87 1009.8
20260505061004 71 216 1.0 7.0 0.00 0.00 0.00 87 1009.8
20260505060004 71 226 2.0 7.0 0.00 0.00 0.00 87 1009.8
20260505055504 71 211 2.0 8.0 0.00 0.00 0.00 87 1009.8
20260505055004 71 200 2.0 8.0 0.00 0.00 0.00 87 1009.7
20260505054504 71 201 2.0 8.0 0.00 0.00 0.00 87 1009.7
20260505054003 71 203 2.0 7.0 0.00 0.00 0.00 87 1009.6
20260505053504 71 209 2.0 7.0 0.00 0.00 0.00 87 1009.7
20260505053004 71 199 2.0 11.0 0.00 0.00 0.00 87 1009.7
20260505052503 71 195 1.0 11.0 0.00 0.00 0.00 87 1009.8
20260505052003 71 205 1.0 8.0 0.00 0.00 0.00 87 1009.8
20260505051004 71 198 2.0 7.0 0.00 0.00 0.00 87 1009.7
20260505050503 71 200 2.0 7.0 0.00 0.00 0.00 86 1009.6
20260505041504 72 205 2.0 6.0 0.00 0.00 0.00 85 1009.6
20260505040504 72 211 1.0 6.0 0.00 0.00 0.00 84 1009.6
20260505040004 73 199 1.0 4.0 0.00 0.00 0.00 84 1009.7
20260505035503 73 202 1.0 9.0 0.00 0.00 0.00 84 1009.7
20260505035004 73 204 1.0 9.0 0.00 0.00 0.00 84 1009.7
20260505034003 73 209 2.0 6.0 0.00 0.00 0.00 83 1009.5
20260505033504 73 207 2.0 11.0 0.00 0.00 0.00 83 1009.5
20260505033004 73 209 2.0 11.0 0.00 0.00 0.00 83 1009.5
20260505032504 73 216 1.0 9.0 0.00 0.00 0.00 82 1009.5
20260505032003 74 234 1.0 6.0 0.00 0.00 0.00 82 1009.6
20260505031504 74 233 1.0 6.0 0.00 0.00 0.00 82 1009.5
20260505031004 74 222 1.0 6.0 0.00 0.00 0.00 82 1009.6
20260505030004 74 223 1.0 8.0 0.00 0.00 0.00 81 1009.6
20260505025503 74 225 1.0 8.0 0.00 0.00 0.00 81 1009.6
20260505025003 74 230 1.0 7.0 0.00 0.00 0.00 80 1009.5
20260505023503 75 196 1.0 5.0 0.00 0.00 0.00 80 1009.5
20260505023004 75 192 1.0 7.0 0.00 0.00 0.00 79 1009.5
20260505022503 75 189 1.0 7.0 0.00 0.00 0.00 79 1009.4
20260505022004 75 174 1.0 4.0 0.00 0.00 0.00 78 1009.5
20260505021503 75 0 0.0 4.0 0.00 0.00 0.00 78 1009.4
20260505020504 75 188 1.0 6.0 0.00 0.00 0.00 76 1009.3
20260505020003 75 208 1.0 6.0 0.00 0.00 0.00 76 1009.3
20260505015503 76 0 0.0 6.0 0.00 0.00 0.00 75 1009.4
20260505014504 76 0 0.0 3.0 0.00 0.00 0.00 74 1009.4
20260505014003 76 199 1.0 4.0 0.00 0.00 0.00 73 1009.3
20260505013504 76 187 1.0 4.0 0.00 0.00 0.00 73 1009.3
20260505013003 76 169 1.0 5.0 0.00 0.00 0.00 73 1009.3
20260505012504 76 168 1.0 5.0 0.00 0.00 0.00 72 1009.2
20260505012004 76 167 1.0 4.0 0.00 0.00 0.00 72 1009.3
20260505011504 77 179 1.0 4.0 0.00 0.00 0.00 71 1009.3
20260505011004 77 197 1.0 6.0 0.00 0.00 0.00 71 1009.2
20260505010503 77 202 1.0 6.0 0.00 0.00 0.00 70 1009.2
20260505010004 77 211 1.0 6.0 0.00 0.00 0.00 70 1009.2
20260505005503 77 211 1.0 6.0 0.00 0.00 0.00 70 1009.1
20260505005004 77 212 1.0 4.0 0.00 0.00 0.00 69 1009.3
20260505004003 78 204 1.0 7.0 0.00 0.00 0.00 69 1009.1
20260505003504 78 193 1.0 7.0 0.00 0.00 0.00 69 1009.1
20260505002504 78 122 1.0 5.0 0.00 0.00 0.00 68 1009.1
20260505001004 78 203 2.0 7.0 0.00 0.00 0.00 67 1008.9
20260505000504 78 195 2.0 7.0 0.00 0.00 0.00 66 1009.0
20260505000003 79 201 2.0 7.0 0.00 0.00 0.00 67 1009.1
20260504235504 79 195 2.0 7.0 0.00 0.00 0.00 67 1009.2
20260504235003 79 183 2.0 7.0 0.00 0.00 0.00 67 1009.3
20260504234004 79 201 2.0 7.0 0.00 0.00 0.00 67 1009.4
20260504233503 79 190 2.0 7.0 0.00 0.00 0.00 66 1009.5
20260504232503 79 191 2.0 7.0 0.00 0.00 0.00 66 1009.4
20260504232003 80 202 2.0 8.0 0.00 0.00 0.00 65 1009.4
20260504231504 80 205 2.0 8.0 0.00 0.00 0.00 65 1009.5
20260504231003 80 220 2.0 7.0 0.00 0.00 0.00 64 1009.5
20260504230004 80 185 2.0 7.0 0.00 0.00 0.00 65 1009.6